Hourly Data Report for October 06, 2014

All times are specified in Local Standard Time (LST). Add 1 hour to adjust for Daylight Saving Time where and when it is observed.

GJOA HAVEN A
NUNAVUT

68°38'08.000" N
95°51'01.000" W
46.90 m
2302337
71597
YHK

Download Data

Hourly Data (October 2014)
Hourly Data Report for October 6, 2014
Temp Definition
°C
Dew Point Temp Definition
°C
Rel Hum Definition
%
Wind Dir Definition
10's deg

Wind Spd Definition
km/h
Visibility Definition
km
Stn Press Definition
kPa
Hmdx Definition


Wind Chill Definition


Weather Definition


TIME
00:00 Legend Double Dagger -5.8 -6.8 93 6 54 4.0 101.55   -16 Snow
01:00 Legend Double Dagger -5.6 -6.4 94 6 52 4.0 101.52   -16 Snow
02:00 Legend Double Dagger -5.6 -6.7 92 6 54 4.8 101.49   -16 Fog
03:00 Legend Double Dagger -5.7 -6.7 93 6 52 4.8 101.44   -16 Fog
04:00 Legend Double Dagger -5.7 -6.7 93 6 48 4.0 101.44   -16 Fog
05:00 Legend Double Dagger -5.6 -6.8 91 6 59 2.8 101.38   -16 Snow
06:00 Legend Double Dagger -5.4 -6.6 91 6 59 2.4 101.29   -16 Snow
07:00 Legend Double Dagger -4.9 -6.1 91 6 59 3.2 101.27   -15 Snow
08:00 Legend Double Dagger -4.4 -5.6 91 6 58 2.8 101.26   -15 Snow
09:00 Legend Double Dagger -3.6 -4.9 91 7 54 4.0 101.28   -13 Snow
10:00 Legend Double Dagger -3.4 -4.9 90 8 59 3.2 101.19   -13 Snow
11:00 Legend Double Dagger -3.6 -4.9 91 7 65 2.4 101.17   -14 Snow
12:00 Legend Double Dagger -3.5 -4.5 93 6 63 2.0 101.10   -14 Snow
13:00 Legend Double Dagger -3.2 -4.3 92 7 58 2.4 101.14   -13 Snow
14:00 Legend Double Dagger -3.0 -4.1 92 7 61 2.8 101.12   -13 Snow
15:00 Legend Double Dagger -2.8 -3.9 92 7 63 3.2 101.14   -13 Snow
16:00 Legend Double Dagger -2.7 -3.7 93 7 59 2.8 101.18   -12 Snow
17:00 Legend Double Dagger -2.7 -3.7 93 8 61 3.2 101.20   -13 Snow
18:00 Legend Double Dagger -2.3 -3.1 94 8 52 4.8 101.25   -11 Fog
19:00 Legend Double Dagger -1.8 -2.8 93 8 52 9.7 101.28   -11 Fog
20:00 Legend Double Dagger -1.6 -2.3 95 9 54 4.8 101.31   -11 Fog
21:00 Legend Double Dagger -1.6 -2.2 96 9 52 6.4 101.32   -10 Fog
22:00 Legend Double Dagger -1.4 -2.2 94 9 41 14.5 101.38   -9 LegendNANA
23:00 Legend Double Dagger -1.4 -2.2 95 9 41 12.9 101.38   -9 LegendNANA

Notes on Data Quality.

Legend

  • E = Estimated
  • M = Missing
  • NA = Not Available
  • ‡ = Partner data that is not subject to review by the National Climate Archives
Date modified: